Location: Poughquag
(41.6090°N, 73.6820°W)
Time: 03:41:04
(UTC-04:00)

Vanguard 2 - Pass Details

Date: 06 June 2020
Orbit: 552 x 2938 km, 32.9° (Epoch: 06 July)

Event Time Altitude Azimuth Distance (km) Brightness Sun altitude
Rises 17:23:26 0° 234° (SW) 6,784 13.0 31.4°
Reaches altitude 10° 17:28:20 10° 229° (SW) 5,708 12.7 30.5°
Maximum altitude 17:44:02 47° 163° (SSE) 2,965 10.6 27.6°
Drops below altitude 10° 17:55:04 10° 95° (E) 4,104 10.8 25.5°
Sets 17:57:58 0° 89° (E) 4,806 11.0 25.0°
